^^
Saratoga-Weather Station Historical Data
Daily Summary for March 6, 2020 Units:  English    Metric   Both
Daily Weekly Monthly Yearly Custom
  High: Low: Average:
Temperature: 89.6 °F 56.5 °F 73 °F
Dew Point: 60.8 °F 50.7 °F 55.9 °F
Humidity: 83% 34% 58%
Wind Speed: 10mph 0mph 1.1mph
Wind Gust: 11mph - -
Wind- - ESE
Pressure: 30.1 in 30 in -
Precipitation: 0 in    
Historical Graphs
 
 
Tabular Data for March 6, 2020
Time Temperature Dew Point Pressure Wind Wind Speed Wind Gust Humidity Rainfall Rate (Hourly) solar
00:03 63.3 °F 51.4 °F 30 in Calm     65% 0 in 0 W/m2
00:08 63.1 °F 51.3 °F 30 in Calm     65% 0 in 0 W/m2
00:13 63 °F 51.4 °F 30 in Calm     66% 0 in 0 W/m2
00:18 63 °F 51.4 °F 30 in Calm     66% 0 in 0 W/m2
00:23 62.8 °F 51.3 °F 30 in Calm     66% 0 in 0 W/m2
00:28 62.8 °F 51.3 °F 30 in Calm     66% 0 in 0 W/m2
00:33 62.4 °F 51.3 °F 30 in Calm     67% 0 in 0 W/m2
00:38 62.4 °F 51.3 °F 30 in Calm     67% 0 in 0 W/m2
00:43 62.2 °F 51.6 °F 30 in Calm     68% 0 in 0 W/m2
00:48 62.1 °F 51.4 °F 30 in Calm     68% 0 in 0 W/m2
00:53 61.9 °F 51.6 °F 30 in Calm     69% 0 in 0 W/m2
00:58 61.5 °F 51.3 °F 30 in Calm     69% 0 in 0 W/m2
01:03 61.3 °F 51.1 °F 30 in Calm     69% 0 in 0 W/m2
01:08 61.2 °F 50.9 °F 30 in Calm     69% 0 in 0 W/m2
01:13 61.2 °F 51.3 °F 30 in Calm     70% 0 in 0 W/m2
01:18 61.2 °F 51.3 °F 30 in Calm     70% 0 in 0 W/m2
01:23 61 °F 51.1 °F 30 in Calm     70% 0 in 0 W/m2
01:28 61 °F 51.1 °F 30 in Calm     70% 0 in 0 W/m2
01:33 61 °F 51.4 °F 30 in Calm     71% 0 in 0 W/m2
01:38 61 °F 51.4 °F 30 in Calm     71% 0 in 0 W/m2
01:43 60.8 °F 51.3 °F 30 in Calm     71% 0 in 0 W/m2
01:48 60.8 °F 51.3 °F 30 in Calm     71% 0 in 0 W/m2
01:53 60.4 °F 51.4 °F 30 in Calm     72% 0 in 0 W/m2
01:58 60.3 °F 51.3 °F 30 in Calm     72% 0 in 0 W/m2
02:03 60.3 °F 51.3 °F 30 in Calm     72% 0 in 0 W/m2
02:08 60.1 °F 51.1 °F 30 in Calm     72% 0 in 0 W/m2
02:13 60.1 °F 51.4 °F 30 in Calm     73% 0 in 0 W/m2
02:19 60.1 °F 51.4 °F 30 in Calm     73% 0 in 0 W/m2
02:24 60.1 °F 51.4 °F 30 in Calm     73% 0 in 0 W/m2
02:29 59.7 °F 51.4 °F 30 in Calm     74% 0 in 0 W/m2
02:34 59.5 °F 51.3 °F 30 in Calm     74% 0 in 0 W/m2
02:39 59.5 °F 51.3 °F 30 in Calm     74% 0 in 0 W/m2
02:44 59.4 °F 51.4 °F 30 in Calm     75% 0 in 0 W/m2
02:49 59.4 °F 51.4 °F 30 in Calm     75% 0 in 0 W/m2
02:54 59.4 °F 51.4 °F 30 in Calm     75% 0 in 0 W/m2
02:59 59.4 °F 51.4 °F 30 in Calm     75% 0 in 0 W/m2
03:04 59.4 °F 51.4 °F 30 in Calm     75% 0 in 0 W/m2
03:09 59.2 °F 51.3 °F 30 in Calm     75% 0 in 0 W/m2
03:14 59.2 °F 51.3 °F 30 in Calm     75% 0 in 0 W/m2
03:19 59.2 °F 51.3 °F 30 in Calm     75% 0 in 0 W/m2
03:24 59 °F 51.1 °F 30 in Calm     75% 0 in 0 W/m2
03:29 58.8 °F 51.3 °F 30 in Calm     76% 0 in 0 W/m2
03:34 58.6 °F 51.1 °F 30 in Calm     76% 0 in 0 W/m2
03:39 58.6 °F 51.1 °F 30 in Calm     76% 0 in 0 W/m2
03:44 58.5 °F 51.3 °F 30 in Calm     77% 0 in 0 W/m2
03:49 58.5 °F 51.3 °F 30 in Calm     77% 0 in 0 W/m2
03:54 58.3 °F 51.1 °F 30 in Calm     77% 0 in 0 W/m2
03:59 58.1 °F 50.9 °F 30 in Calm     77% 0 in 0 W/m2
04:04 57.9 °F 51.1 °F 30 in Calm     78% 0 in 0 W/m2
04:09 57.9 °F 51.1 °F 30 in Calm     78% 0 in 0 W/m2
04:14 57.9 °F 51.1 °F 30 in Calm     78% 0 in 0 W/m2
04:19 57.9 °F 51.1 °F 30 in Calm     78% 0 in 0 W/m2
04:24 57.7 °F 50.9 °F 30 in Calm     78% 0 in 0 W/m2
04:29 57.7 °F 50.9 °F 30 in Calm     78% 0 in 0 W/m2
04:34 57.6 °F 50.7 °F 30 in Calm     78% 0 in 0 W/m2
04:39 57.6 °F 51.1 °F 30 in Calm     79% 0 in 0 W/m2
04:44 57.6 °F 51.1 °F 30 in Calm     79% 0 in 0 W/m2
04:49 57.6 °F 51.1 °F 30 in Calm     79% 0 in 0 W/m2
04:54 57.6 °F 51.1 °F 30 in Calm     79% 0 in 0 W/m2
04:59 57.4 °F 50.9 °F 30 in Calm     79% 0 in 0 W/m2
05:04 57.4 °F 50.9 °F 30 in Calm     79% 0 in 0 W/m2
05:09 57.2 °F 50.7 °F 30 in Calm     79% 0 in 0 W/m2
05:14 57 °F 50.9 °F 30 in Calm     80% 0 in 0 W/m2
05:19 57 °F 50.9 °F 30 in Calm     80% 0 in 0 W/m2
05:24 57 °F 50.9 °F 30 in Calm     80% 0 in 0 W/m2
05:29 56.8 °F 50.7 °F 30 in Calm     80% 0 in 0 W/m2
05:34 56.8 °F 50.7 °F 30 in Calm     80% 0 in 0 W/m2
05:39 56.8 °F 51.1 °F 30 in Calm     81% 0 in 0 W/m2
05:45 56.8 °F 51.1 °F 30 in Calm     81% 0 in 0 W/m2
05:50 56.8 °F 51.1 °F 30 in Calm     81% 0 in 0 W/m2
05:55 56.8 °F 51.1 °F 30 in Calm     81% 0 in 0 W/m2
06:00 56.7 °F 50.9 °F 30 in Calm     81% 0 in 0 W/m2
06:05 56.7 °F 51.3 °F 30 in Calm     82% 0 in 0 W/m2
06:10 56.7 °F 51.3 °F 30 in Calm     82% 0 in 0 W/m2
06:15 56.5 °F 51.1 °F 30 in Calm     82% 0 in 5 W/m2
06:20 56.5 °F 51.1 °F 30 in Calm     82% 0 in 7 W/m2
06:25 56.7 °F 51.6 °F 30 in Calm     83% 0 in 9 W/m2
06:30 56.7 °F 51.3 °F 30 in Calm     82% 0 in 11 W/m2
06:35 56.8 °F 51.4 °F 30.1 in Calm     82% 0 in 12 W/m2
06:41 56.8 °F 51.4 °F 30.1 in Calm   1 mph 82% 0 in 14 W/m2
06:46 57 °F 51.6 °F 30.1 in Calm     82% 0 in 16 W/m2
06:51 57 °F 51.6 °F 30.1 in Calm     82% 0 in 18 W/m2
06:56 57.2 °F 52.2 °F 30.1 in Calm     83% 0 in 21 W/m2
07:01 57.6 °F 52.2 °F 30.1 in Calm     82% 0 in 21 W/m2
07:06 57.7 °F 52 °F 30.1 in Calm     81% 0 in 23 W/m2
07:11 57.9 °F 52.2 °F 30.1 in Calm     81% 0 in 23 W/m2
07:16 57.9 °F 52.2 °F 30.1 in Calm     81% 0 in 25 W/m2
07:21 58.1 °F 52 °F 30.1 in Calm     80% 0 in 26 W/m2
07:26 58.3 °F 52.2 °F 30.1 in Calm     80% 0 in 26 W/m2
07:31 58.5 °F 52.3 °F 30.1 in Calm     80% 0 in 28 W/m2
07:36 58.6 °F 52.5 °F 30.1 in Calm     80% 0 in 30 W/m2
07:41 58.8 °F 52.7 °F 30.1 in Calm     80% 0 in 30 W/m2
07:46 59.2 °F 52.7 °F 30.1 in Calm     79% 0 in 32 W/m2
07:51 59.4 °F 52.9 °F 30.1 in Calm     79% 0 in 33 W/m2
07:56 59.5 °F 52.7 °F 30.1 in Calm     78% 0 in 40 W/m2
08:01 60.1 °F 53.2 °F 30.1 in Calm     78% 0 in 49 W/m2
08:06 60.6 °F 53.1 °F 30.1 in Calm   1 mph 76% 0 in 125 W/m2
08:12 61.3 °F 53.1 °F 30.1 in Calm     74% 0 in 40 W/m2
08:17 62.2 °F 53.4 °F 30.1 in South 0.9 mph 1 mph 73% 0 in 39 W/m2
08:22 63.7 °F 54.1 °F 30.1 in NE 0.9 mph 2 mph 71% 0 in 40 W/m2
08:27 64.9 °F 54.1 °F 30.1 in Calm   2 mph 68% 0 in 39 W/m2
08:32 66 °F 54 °F 30.1 in Calm   1 mph 65% 0 in 39 W/m2
08:37 66.7 °F 53.8 °F 30.1 in Calm   1 mph 63% 0 in 39 W/m2
08:42 67.5 °F 54.5 °F 30.1 in Calm   1 mph 63% 0 in 39 W/m2
08:47 67.8 °F 54.3 °F 30.1 in ESE 2.9 mph 4 mph 62% 0 in 39 W/m2
08:52 68.2 °F 54.1 °F 30.1 in NNE 0.9 mph 2 mph 61% 0 in 40 W/m2
08:57 68.5 °F 54.1 °F 30.1 in Calm   2 mph 60% 0 in 49 W/m2
09:02 68.7 °F 54.3 °F 30.1 in NNW 0.9 mph 1 mph 60% 0 in 169 W/m2
09:07 69.3 °F 54.3 °F 30.1 in NE 0.9 mph 3 mph 59% 0 in 353 W/m2
09:12 69.4 °F 54.5 °F 30.1 in Calm   2 mph 59% 0 in 376 W/m2
09:17 69.6 °F 54.7 °F 30.1 in SSE 2.9 mph 3 mph 59% 0 in 388 W/m2
09:22 70 °F 55 °F 30.1 in NE 0.9 mph 5 mph 59% 0 in 404 W/m2
09:27 70.2 °F 54.7 °F 30.1 in ESE 2.9 mph 3 mph 58% 0 in 418 W/m2
09:32 70.2 °F 55.2 °F 30.1 in NE 2 mph 2 mph 59% 0 in 432 W/m2
09:37 70.3 °F 55.4 °F 30.1 in NNW 0.9 mph 3 mph 59% 0 in 448 W/m2
09:42 70.5 °F 55 °F 30.1 in NE 2 mph 4 mph 58% 0 in 461 W/m2
09:47 71.1 °F 55.9 °F 30.1 in NE 4 mph 5 mph 59% 0 in 466 W/m2
09:52 71.4 °F 55.9 °F 30.1 in ENE 2 mph 3 mph 58% 0 in 47 W/m2
09:57 72 °F 55.4 °F 30.1 in Calm   3 mph 56% 0 in 223 W/m2
10:02 72.3 °F 55.8 °F 30.1 in ENE 2 mph 2 mph 56% 0 in 510 W/m2
10:07 72.9 °F 56.3 °F 30.1 in SE 4.9 mph 7 mph 56% 0 in 526 W/m2
10:12 73.2 °F 56.1 °F 30.1 in NNE 0.9 mph 2 mph 55% 0 in 536 W/m2
10:17 73.8 °F 56.7 °F 30.1 in East 2 mph 4 mph 55% 0 in 550 W/m2
10:22 74.1 °F 56.8 °F 30.1 in Calm   1 mph 55% 0 in 561 W/m2
10:28 74.8 °F 57.6 °F 30.1 in East 0.9 mph 2 mph 55% 0 in 577 W/m2
10:33 75.6 °F 57.7 °F 30.1 in NNW 2.9 mph 4 mph 54% 0 in 587 W/m2
10:38 76.1 °F 57.7 °F 30.1 in ENE 0.9 mph 4 mph 53% 0 in 601 W/m2
10:43 76.6 °F 57.2 °F 30.1 in Calm   3 mph 51% 0 in 617 W/m2
10:48 77 °F 57.6 °F 30.1 in ESE 0.9 mph 4 mph 51% 0 in 628 W/m2
10:53 77.4 °F 56.7 °F 30.1 in NE 2 mph 7 mph 49% 0 in 645 W/m2
10:58 77.7 °F 56.5 °F 30.1 in SSE 4 mph 5 mph 48% 0 in 656 W/m2
11:03 77.7 °F 57 °F 30.1 in NE 4.9 mph 6 mph 49% 0 in 668 W/m2
11:08 78.1 °F 56.8 °F 30.1 in NE 2 mph 9 mph 48% 0 in 680 W/m2
11:13 78.3 °F 57 °F 30.1 in NNE 4.9 mph 6 mph 48% 0 in 666 W/m2
11:18 78.4 °F 57.2 °F 30.1 in SSE 4 mph 5 mph 48% 0 in 687 W/m2
11:23 78.6 °F 57.2 °F 30.1 in ESE 4 mph 4 mph 48% 0 in 714 W/m2
11:28 79 °F 57 °F 30.1 in NE 2 mph 8 mph 47% 0 in 719 W/m2
11:33 79.2 °F 57.7 °F 30.1 in SE 4 mph 5 mph 48% 0 in 735 W/m2
11:38 79.3 °F 57.9 °F 30.1 in ESE 2.9 mph 8 mph 48% 0 in 701 W/m2
11:43 79.9 °F 57.2 °F 30.1 in NNE 10 mph 10 mph 46% 0 in 731 W/m2
11:48 80.1 °F 57.4 °F 30.1 in East 4 mph 4 mph 46% 0 in 747 W/m2
11:53 80.2 °F 57.6 °F 30.1 in NNE 2.9 mph 6 mph 46% 0 in 649 W/m2
11:58 80.4 °F 57.7 °F 30.1 in SE 8.1 mph 8 mph 46% 0 in 756 W/m2
12:03 81 °F 58.3 °F 30.1 in ENE 2 mph 9 mph 46% 0 in 770 W/m2
12:08 80.8 °F 58.1 °F 30.1 in NNE 4.9 mph 8 mph 46% 0 in 747 W/m2
12:13 80.8 °F 57.4 °F 30.1 in NNE 2.9 mph 11 mph 45% 0 in 772 W/m2
12:18 81 °F 58.3 °F 30.1 in ENE 0.9 mph 4 mph 46% 0 in 782 W/m2
12:23 81.1 °F 57.7 °F 30.1 in NE 2 mph 11 mph 45% 0 in 786 W/m2
12:28 81.1 °F 57.7 °F 30.1 in South 2 mph 8 mph 45% 0 in 791 W/m2
12:33 81.3 °F 57.9 °F 30.1 in North 2.9 mph 9 mph 45% 0 in 673 W/m2
12:38 81.7 °F 58.3 °F 30.1 in NNE 2 mph 4 mph 45% 0 in 817 W/m2
12:43 82 °F 58.6 °F 30.1 in ENE 2 mph 8 mph 45% 0 in 798 W/m2
12:48 82.2 °F 59.9 °F 30.1 in East 2.9 mph 3 mph 47% 0 in 791 W/m2
12:53 82.2 °F 58.8 °F 30.1 in NE 2.9 mph 4 mph 45% 0 in 779 W/m2
12:58 82.6 °F 58.5 °F 30.1 in NNE 4 mph 4 mph 44% 0 in 805 W/m2
13:03 82.9 °F 58.8 °F 30.1 in ENE 2.9 mph 4 mph 44% 0 in 816 W/m2
13:08 83.1 °F 58.3 °F 30.1 in ENE 6.9 mph 10 mph 43% 0 in 833 W/m2
13:13 82.8 °F 57.9 °F 30.1 in Calm   4 mph 43% 0 in 782 W/m2
13:18 82.9 °F 59.4 °F 30.1 in SSE 2 mph 10 mph 45% 0 in 830 W/m2
13:23 83.5 °F 58.6 °F 30.1 in ESE 2.9 mph 3 mph 43% 0 in 779 W/m2
13:28 83.7 °F 58.8 °F 30.1 in NW 2 mph 4 mph 43% 0 in 814 W/m2
13:33 83.7 °F 58.1 °F 30.1 in NNW 4 mph 4 mph 42% 0 in 795 W/m2
13:38 83.3 °F 58.5 °F 30.1 in NNE 4 mph 7 mph 43% 0 in 786 W/m2
13:43 83.7 °F 59.4 °F 30.1 in ENE 4 mph 4 mph 44% 0 in 800 W/m2
13:48 83.8 °F 59 °F 30.1 in East 2 mph 8 mph 43% 0 in 821 W/m2
13:53 84.4 °F 58.8 °F 30 in ENE 4.9 mph 7 mph 42% 0 in 849 W/m2
13:58 84.9 °F 59.2 °F 30.1 in NE 2.9 mph 8 mph 42% 0 in 830 W/m2
14:03 84.9 °F 57.9 °F 30.1 in Calm   5 mph 40% 0 in 837 W/m2
14:08 84.7 °F 59.2 °F 30 in SE 4 mph 4 mph 42% 0 in 842 W/m2
14:13 84.6 °F 58.3 °F 30 in ENE 4 mph 5 mph 41% 0 in 837 W/m2
14:18 84.7 °F 58.5 °F 30 in South 2 mph 7 mph 41% 0 in 854 W/m2
14:23 85.3 °F 59 °F 30 in East 2 mph 7 mph 41% 0 in 817 W/m2
14:28 85.3 °F 59.5 °F 30 in ENE 4.9 mph 7 mph 42% 0 in 826 W/m2
14:33 84.9 °F 58.6 °F 30 in South 4 mph 4 mph 41% 0 in 772 W/m2
14:38 85.1 °F 58.8 °F 30 in ENE 4.9 mph 5 mph 41% 0 in 742 W/m2
14:43 85.3 °F 59 °F 30 in ESE 4 mph 7 mph 41% 0 in 831 W/m2
14:48 85.6 °F 58.5 °F 30 in NE 2 mph 4 mph 40% 0 in 837 W/m2
14:53 86 °F 59.5 °F 30 in NNW 0.9 mph 6 mph 41% 0 in 837 W/m2
14:58 86.5 °F 58.6 °F 30 in ESE 0.9 mph 7 mph 39% 0 in 833 W/m2
15:03 86.5 °F 58.6 °F 30 in East 2.9 mph 6 mph 39% 0 in 833 W/m2
15:08 86.4 °F 59.2 °F 30 in SE 0.9 mph 4 mph 40% 0 in 826 W/m2
15:13 86.4 °F 59.2 °F 30 in ENE 0.9 mph 4 mph 40% 0 in 809 W/m2
15:18 86.2 °F 59 °F 30 in East 0.9 mph 4 mph 40% 0 in 780 W/m2
15:24 86.7 °F 59.5 °F 30 in North 4 mph 5 mph 40% 0 in 770 W/m2
15:29 87.1 °F 59.2 °F 30 in ENE 2 mph 5 mph 39% 0 in 745 W/m2
15:34 87.6 °F 58.8 °F 30 in ENE 2 mph 6 mph 38% 0 in 745 W/m2
15:39 87.4 °F 58.6 °F 30 in NNE 0.9 mph 5 mph 38% 0 in 803 W/m2
15:44 87.3 °F 59.4 °F 30 in East 4 mph 8 mph 39% 0 in 724 W/m2
15:49 87.4 °F 58.6 °F 30 in East 2.9 mph 9 mph 38% 0 in 696 W/m2
15:54 87.6 °F 57.4 °F 30 in ENE 2.9 mph 6 mph 36% 0 in 673 W/m2
15:59 87.6 °F 58.1 °F 30 in ENE 0.9 mph 3 mph 37% 0 in 664 W/m2
16:04 87.6 °F 58.1 °F 30 in NE 2.9 mph 3 mph 37% 0 in 747 W/m2
16:09 87.8 °F 57.6 °F 30 in East 0.9 mph 3 mph 36% 0 in 724 W/m2
16:14 88.2 °F 58.6 °F 30 in ENE 0.9 mph 4 mph 37% 0 in 722 W/m2
16:19 88.2 °F 57.9 °F 30 in SE 4.9 mph 7 mph 36% 0 in 703 W/m2
16:24 87.8 °F 58.3 °F 30 in ENE 4.9 mph 9 mph 37% 0 in 643 W/m2
16:29 87.6 °F 58.1 °F 30 in NE 6 mph 9 mph 37% 0 in 643 W/m2
16:34 87.6 °F 58.1 °F 30 in NE 2.9 mph 6 mph 37% 0 in 654 W/m2
16:39 88 °F 58.5 °F 30 in SW 0.9 mph 9 mph 37% 0 in 670 W/m2
16:44 88 °F 59.2 °F 30 in ENE 2 mph 2 mph 38% 0 in 659 W/m2
16:49 88.3 °F 57.9 °F 30 in NE 2.9 mph 5 mph 36% 0 in 657 W/m2
16:54 88.2 °F 57.9 °F 30 in ENE 4 mph 9 mph 36% 0 in 612 W/m2
16:59 88.2 °F 58.6 °F 30 in ENE 0.9 mph 4 mph 37% 0 in 606 W/m2
17:04 88.5 °F 58.1 °F 30 in NE 2.9 mph 3 mph 36% 0 in 605 W/m2
17:09 88.3 °F 57.2 °F 30 in Calm   4 mph 35% 0 in 601 W/m2
17:14 88.9 °F 58.5 °F 30 in North 0.9 mph 3 mph 36% 0 in 563 W/m2
17:19 89.2 °F 58.8 °F 30 in East 2 mph 6 mph 36% 0 in 568 W/m2
17:24 89.2 °F 57.9 °F 30 in SE 0.9 mph 3 mph 35% 0 in 501 W/m2
17:29 89.2 °F 57.9 °F 30 in NNW 2 mph 3 mph 35% 0 in 415 W/m2
17:34 88.5 °F 57.4 °F 30 in SE 0.9 mph 4 mph 35% 0 in 308 W/m2
17:39 88.3 °F 57.9 °F 30 in NW 0.9 mph 4 mph 36% 0 in 457 W/m2
17:44 88.2 °F 57.9 °F 30 in NNE 0.9 mph 2 mph 36% 0 in 468 W/m2
17:49 88.2 °F 57.9 °F 30 in SSE 2 mph 9 mph 36% 0 in 410 W/m2
17:54 88.2 °F 57.9 °F 30 in North 2.9 mph 5 mph 36% 0 in 480 W/m2
17:59 88.3 °F 57.9 °F 30 in ENE 2 mph 9 mph 36% 0 in 457 W/m2
18:04 88.5 °F 58.1 °F 30 in East 6.9 mph 7 mph 36% 0 in 422 W/m2
18:09 88.5 °F 58.1 °F 30 in ENE 2 mph 8 mph 36% 0 in 424 W/m2
18:14 88.9 °F 59.2 °F 30 in NNW 2.9 mph 3 mph 37% 0 in 408 W/m2
18:19 89.2 °F 57.2 °F 30 in ENE 4.9 mph 7 mph 34% 0 in 410 W/m2
18:24 89.6 °F 58.3 °F 30 in SE 2 mph 3 mph 35% 0 in 387 W/m2
18:29 89.2 °F 57.2 °F 30 in South 0.9 mph 6 mph 34% 0 in 329 W/m2
18:34 89.2 °F 57.9 °F 30 in East 0.9 mph 2 mph 35% 0 in 288 W/m2
18:39 89.1 °F 57.9 °F 30 in ENE 2 mph 2 mph 35% 0 in 338 W/m2
18:44 89.2 °F 58.8 °F 30 in NE 2 mph 3 mph 36% 0 in 359 W/m2
18:49 89.1 °F 57.9 °F 30 in NNW 2 mph 4 mph 35% 0 in 322 W/m2
18:54 89.1 °F 57.9 °F 30 in SE 2.9 mph 4 mph 35% 0 in 294 W/m2
19:00 89.1 °F 58.6 °F 30 in SE 2 mph 3 mph 36% 0 in 272 W/m2
19:05 88.7 °F 58.3 °F 30 in ENE 2 mph 4 mph 36% 0 in 195 W/m2
19:10 88.3 °F 58.8 °F 30 in SE 2 mph 2 mph 37% 0 in 193 W/m2
19:15 88.3 °F 57.9 °F 30 in Calm   1 mph 36% 0 in 204 W/m2
19:20 88.5 °F 59.7 °F 30 in ESE 0.9 mph 2 mph 38% 0 in 178 W/m2
19:25 88.3 °F 58.8 °F 30 in ESE 0.9 mph 1 mph 37% 0 in 148 W/m2
19:30 88.2 °F 60.1 °F 30 in NE 0.9 mph 3 mph 39% 0 in 160 W/m2
19:35 87.8 °F 57.6 °F 30 in ENE 0.9 mph 4 mph 36% 0 in 160 W/m2
19:40 87.4 °F 57.9 °F 30 in Calm   6 mph 37% 0 in 167 W/m2
19:45 87.3 °F 58.6 °F 30 in Calm   3 mph 38% 0 in 163 W/m2
19:50 87.1 °F 58.5 °F 30 in ENE 0.9 mph 2 mph 38% 0 in 155 W/m2
19:55 87.1 °F 59.9 °F 30 in Calm   1 mph 40% 0 in 132 W/m2
20:00 86.7 °F 59.5 °F 30 in Calm   2 mph 40% 0 in 121 W/m2
20:05 86.4 °F 60.6 °F 30 in ESE 0.9 mph 1 mph 42% 0 in 100 W/m2
20:10 85.8 °F 60.8 °F 30 in Calm   1 mph 43% 0 in 81 W/m2
20:15 85.5 °F 60.4 °F 30 in Calm     43% 0 in 63 W/m2
20:20 85.1 °F 60.8 °F 30 in Calm   1 mph 44% 0 in 46 W/m2
20:25 84.4 °F 60.8 °F 30 in Calm   1 mph 45% 0 in 35 W/m2
20:30 83.7 °F 60.6 °F 30 in East 0.9 mph 2 mph 46% 0 in 21 W/m2
20:35 82.9 °F 60.1 °F 30 in East 0.9 mph 2 mph 46% 0 in 18 W/m2
20:40 82 °F 60.4 °F 30 in East 0.9 mph 2 mph 48% 0 in 16 W/m2
20:45 81.3 °F 60.3 °F 30 in East 0.9 mph 1 mph 49% 0 in 12 W/m2
20:50 80.4 °F 60.1 °F 30 in Calm   2 mph 50% 0 in 11 W/m2
20:55 79.9 °F 60.1 °F 30 in Calm   1 mph 51% 0 in 9 W/m2
21:01 79.2 °F 60.1 °F 30 in East 0.9 mph 1 mph 52% 0 in 7 W/m2
21:06 78.6 °F 60.1 °F 30 in Calm   1 mph 53% 0 in 5 W/m2
21:11 78.1 °F 59.5 °F 30 in Calm   2 mph 53% 0 in 0 W/m2
21:16 77.5 °F 60.1 °F 30 in Calm   1 mph 55% 0 in 0 W/m2
21:21 77.2 °F 59.7 °F 30 in Calm     55% 0 in 0 W/m2
21:26 76.6 °F 59.7 °F 30 in Calm   1 mph 56% 0 in 0 W/m2
21:31 76.5 °F 60.1 °F 30 in Calm   1 mph 57% 0 in 0 W/m2
21:36 75.9 °F 60.1 °F 30 in Calm   1 mph 58% 0 in 0 W/m2
21:41 75.6 °F 59.7 °F 30 in Calm   1 mph 58% 0 in 0 W/m2
21:46 75 °F 59.7 °F 30 in Calm     59% 0 in 0 W/m2
21:51 74.8 °F 60.1 °F 30 in Calm     60% 0 in 0 W/m2
21:56 74.5 °F 59.7 °F 30 in Calm     60% 0 in 0 W/m2
22:01 73.9 °F 59.7 °F 30 in Calm     61% 0 in 0 W/m2
22:06 73.8 °F 59.5 °F 30 in Calm     61% 0 in 0 W/m2
22:11 73.2 °F 59.4 °F 30.1 in Calm     62% 0 in 0 W/m2
22:16 73 °F 59.7 °F 30.1 in Calm     63% 0 in 0 W/m2
22:21 72.7 °F 59.4 °F 30.1 in Calm     63% 0 in 0 W/m2
22:26 72.3 °F 59.5 °F 30.1 in Calm     64% 0 in 0 W/m2
22:31 72.1 °F 59.4 °F 30.1 in Calm     64% 0 in 0 W/m2
22:36 72 °F 59.2 °F 30.1 in Calm     64% 0 in 0 W/m2
22:41 71.8 °F 59.4 °F 30.1 in Calm     65% 0 in 0 W/m2
22:46 71.6 °F 59.2 °F 30.1 in Calm     65% 0 in 0 W/m2
22:51 71.4 °F 59.5 °F 30.1 in Calm     66% 0 in 0 W/m2
22:56 71.2 °F 59.4 °F 30.1 in Calm     66% 0 in 0 W/m2
23:01 71.1 °F 59.5 °F 30.1 in Calm     67% 0 in 0 W/m2
23:06 70.9 °F 59.4 °F 30.1 in Calm     67% 0 in 0 W/m2
23:11 70.5 °F 59 °F 30.1 in Calm     67% 0 in 0 W/m2
23:16 70.3 °F 59.4 °F 30.1 in Calm     68% 0 in 0 W/m2
23:21 70.2 °F 59.5 °F 30.1 in Calm     69% 0 in 0 W/m2
23:26 69.8 °F 59.2 °F 30.1 in Calm     69% 0 in 0 W/m2
23:31 69.8 °F 59.2 °F 30.1 in Calm     69% 0 in 0 W/m2
23:36 69.6 °F 59.4 °F 30.1 in Calm     70% 0 in 0 W/m2
23:41 69.6 °F 59.4 °F 30.1 in Calm     70% 0 in 0 W/m2
23:47 69.4 °F 59.2 °F 30.1 in Calm     70% 0 in 0 W/m2
23:52 69.3 °F 59 °F 30.1 in Calm     70% 0 in 0 W/m2
23:57 69.3 °F 59.5 °F 30.1 in Calm     71% 0 in 0 W/m2
Juneau County Weather
Compliments of Weather Underground - 4 mb